This is the latest recevied weather packets stored in our database for station/object KD8OUK. If no packets are shown the sender has not sent any weather packets the latest 10 day(s).
| Time | Temp. | Humidity | Pressure | Rain* | Wind** | Luminosity | Snow |
|---|---|---|---|---|---|---|---|
| 1777686019 | 3.33° C | 89% | 1016.7 hPa | 0 mm | - | - | - |
| 1777685729 | 3.89° C | 88% | 1016.5 hPa | 0 mm | - | - | - |
| 1777685422 | 3.89° C | 88% | 1016.5 hPa | 0 mm | - | - | - |
| 1777685131 | 3.89° C | 87% | 1016.3 hPa | 0 mm | - | - | - |
| 1777684823 | 4.44° C | 86% | 1016.3 hPa | 0 mm | - | - | - |
| 1777684515 | 4.44° C | 85% | 1016.2 hPa | 0 mm | - | - | - |
| 1777684228 | 4.44° C | 85% | 1016.1 hPa | 0 mm | - | - | - |
| 1777683918 | 5° C | 84% | 1016.1 hPa | 0 mm | - | - | - |
| 1777683629 | 5° C | 83% | 1016 hPa | 0 mm | - | - | - |
| 1777683321 | 5° C | 82% | 1016 hPa | 0 mm | - | - | - |
| 1777683031 | 5.56° C | 81% | 1016 hPa | 0 mm | - | - | - |
| 1777682722 | 5.56° C | 81% | 1016.1 hPa | 0 mm | - | - | - |
| 1777682433 | 6.11° C | 81% | 1016.1 hPa | 0 mm | - | - | - |
| 1777682125 | 6.11° C | 81% | 1016.2 hPa | 0 mm | - | - | - |
| 1777681817 | 6.11° C | 80% | 1016.2 hPa | 0 mm | - | - | - |
| 1777681528 | 6.67° C | 80% | 1016.2 hPa | 0 mm | - | - | - |
| 1777681220 | 7.22° C | 80% | 1016.3 hPa | 0 mm | - | - | - |
| 1777680925 | 7.22° C | 80% | 1016.3 hPa | 0 mm | - | - | - |
| 1777680616 | 7.22° C | 78% | 1016.2 hPa | 0 mm | - | - | - |
| 1777680327 | 7.22° C | 78% | 1016.2 hPa | 0 mm | - | - | - |
| 1777680019 | 7.78° C | 77% | 1015.8 hPa | 0 mm | - | - | - |
| 1777679729 | 7.78° C | 77% | 1015.8 hPa | 0 mm | - | - | - |
| 1777679421 | 7.78° C | 79% | 1015.7 hPa | 0 mm | - | - | - |
| 1777679132 | 7.78° C | 80% | 1015.7 hPa | 0 mm | - | - | - |
| 1777678823 | 7.22° C | 81% | 1015.7 hPa | 0 mm | - | - | - |
* Rain latest hour (hover to see other rain measurements)
** Current wind speed in m/s (hover to see current wind gust speed)